• en Suisse
  • Liste des pays
  • À 7 jours
  • Température de l'eau
  • Carte satellitaire
  • Carte météo
  • Widgets météo
  • user-avatar
    Se connecter

    Météo par heure à Bolshak

    Ce jour, 23 Septembre, Dimanche

    Heure Température Précipitation Vent Pression Humidité
    00:00 +19°C° 0 mm 6 m/s 748 mmHg 59%
    01:00 +19°C° 0 mm 6 m/s 748 mmHg 60%
    02:00 +17°C° 0 mm 6 m/s 747 mmHg 62%
    03:00 +18°C° 0 mm 4 m/s 746 mmHg 65%
    04:00 +16°C° 0 mm 5 m/s 746 mmHg 65%
    05:00 +16°C° 0 mm 6 m/s 746 mmHg 66%
    06:00 +16°C° 0 mm 7 m/s 745 mmHg 66%
    07:00 +17°C° 0 mm 7 m/s 745 mmHg 65%
    08:00 +17°C° 0 mm 7 m/s 745 mmHg 63%
    09:00 +18°C° 0 mm 8 m/s 744 mmHg 62%
    10:00 +18°C° 0.1 mm 7 m/s 745 mmHg 64%
    11:00 +17°C° 0.1 mm 7 m/s 745 mmHg 66%
    12:00 +16°C° 0.1 mm 7 m/s 745 mmHg 68%
    13:00 +15°C° 0.5 mm 6 m/s 746 mmHg 73%
    14:00 +13°C° 0.5 mm 5 m/s 746 mmHg 78%
    15:00 +10°C° 0.5 mm 5 m/s 746 mmHg 82%
    16:00 +11°C° 0.5 mm 4 m/s 746 mmHg 82%
    17:00 +11°C° 0.5 mm 4 m/s 746 mmHg 82%
    18:00 +11°C° 0.5 mm 3 m/s 747 mmHg 82%
    19:00 +11°C° 0.1 mm 3 m/s 747 mmHg 82%
    20:00 +11°C° 0.1 mm 3 m/s 747 mmHg 83%
    21:00 +11°C° 0.1 mm 4 m/s 747 mmHg 83%
    22:00 +10°C° 0 mm 3 m/s 747 mmHg 85%
    23:00 +9°C° 0 mm 3 m/s 747 mmHg 87%

    Demain, 24 Septembre, Lundi

    Heure Température Précipitation Vent Pression Humidité
    00:00 +9°C° 0 mm 3 m/s 747 mmHg 89%
    01:00 +8°C° 0 mm 3 m/s 747 mmHg 90%
    02:00 +8°C° 0 mm 3 m/s 748 mmHg 91%
    03:00 +8°C° 0 mm 3 m/s 748 mmHg 91%
    04:00 +8°C° 0 mm 3 m/s 748 mmHg 92%
    05:00 +7°C° 0 mm 3 m/s 748 mmHg 93%
    06:00 +7°C° 0 mm 3 m/s 747 mmHg 93%
    07:00 +8°C° 0 mm 3 m/s 748 mmHg 88%
    08:00 +10°C° 0 mm 3 m/s 748 mmHg 83%
    09:00 +11°C° 0 mm 3 m/s 748 mmHg 78%
    10:00 +12°C° 0 mm 4 m/s 748 mmHg 72%
    11:00 +13°C° 0 mm 5 m/s 748 mmHg 67%
    12:00 +14°C° 0 mm 5 m/s 747 mmHg 62%
    13:00 +14°C° 0 mm 5 m/s 747 mmHg 62%
    14:00 +14°C° 0 mm 6 m/s 746 mmHg 63%
    15:00 +13°C° 0 mm 6 m/s 746 mmHg 63%
    16:00 +13°C° 1 mm 5 m/s 745 mmHg 69%
    17:00 +12°C° 1 mm 5 m/s 744 mmHg 74%
    18:00 +10°C° 1 mm 5 m/s 744 mmHg 80%
    19:00 +10°C° 1.6 mm 6 m/s 743 mmHg 81%
    20:00 +10°C° 1.6 mm 8 m/s 742 mmHg 81%
    21:00 +10°C° 1.6 mm 9 m/s 741 mmHg 82%
    22:00 +11°C° 0.5 mm 10 m/s 740 mmHg 82%
    23:00 +11°C° 0.5 mm 10 m/s 739 mmHg 81%

    Après-demain, 25 Septembre, Mardi

    Heure Température Précipitation Vent Pression Humidité
    00:00 +11°C° 0.5 mm 11 m/s 738 mmHg 81%
    01:00 +11°C° 0.3 mm 10 m/s 738 mmHg 81%
    02:00 +10°C° 0.3 mm 9 m/s 737 mmHg 81%
    03:00 +10°C° 0.3 mm 8 m/s 737 mmHg 82%
    04:00 +9°C° 0 mm 8 m/s 737 mmHg 81%
    05:00 +9°C° 0 mm 8 m/s 737 mmHg 80%
    06:00 +7°C° 0 mm 8 m/s 737 mmHg 79%
    07:00 +7°C° 0 mm 8 m/s 737 mmHg 78%
    08:00 +7°C° 0 mm 8 m/s 737 mmHg 77%
    09:00 +8°C° 0 mm 9 m/s 738 mmHg 77%
    10:00 +8°C° 0 mm 9 m/s 738 mmHg 75%
    11:00 +8°C° 0 mm 9 m/s 739 mmHg 74%
    12:00 +8°C° 0 mm 9 m/s 739 mmHg 73%
    13:00 +9°C° 0 mm 8 m/s 740 mmHg 72%
    14:00 +9°C° 0 mm 8 m/s 741 mmHg 71%
    15:00 +9°C° 0 mm 8 m/s 741 mmHg 70%
    16:00 +9°C° 0 mm 8 m/s 742 mmHg 70%
    17:00 +7°C° 0 mm 8 m/s 743 mmHg 71%
    18:00 +7°C° 0 mm 8 m/s 743 mmHg 71%
    19:00 +6°C° 0 mm 8 m/s 744 mmHg 71%
    20:00 +6°C° 0 mm 7 m/s 745 mmHg 72%
    21:00 +6°C° 0 mm 7 m/s 746 mmHg 72%
    22:00 +5°C° 0 mm 7 m/s 746 mmHg 73%
    23:00 +5°C° 0 mm 6 m/s 747 mmHg 74%

    26 Septembre, Mercredi

    Heure Température Précipitation Vent Pression Humidité
    00:00 +5°C° 0 mm 6 m/s 747 mmHg 75%
    01:00 +4°C° 0 mm 6 m/s 748 mmHg 75%
    02:00 +4°C° 0 mm 6 m/s 748 mmHg 76%
    03:00 +5°C° 0 mm 5 m/s 749 mmHg 77%
    04:00 +3°C° 0 mm 5 m/s 749 mmHg 77%
    05:00 +3°C° 0 mm 5 m/s 750 mmHg 78%
    06:00 +3°C° 0 mm 5 m/s 751 mmHg 78%
    07:00 +3°C° 0 mm 5 m/s 751 mmHg 74%
    08:00 +4°C° 0 mm 6 m/s 752 mmHg 70%
    09:00 +4°C° 0 mm 6 m/s 753 mmHg 66%
    10:00 +5°C° 0 mm 6 m/s 753 mmHg 63%
    11:00 +7°C° 0 mm 5 m/s 753 mmHg 60%
    12:00 +7°C° 0 mm 5 m/s 754 mmHg 56%
    13:00 +8°C° 0 mm 5 m/s 754 mmHg 54%
    14:00 +8°C° 0 mm 5 m/s 754 mmHg 51%
    15:00 +9°C° 0 mm 5 m/s 754 mmHg 49%
    16:00 +8°C° 0 mm 4 m/s 754 mmHg 52%
    17:00 +8°C° 0 mm 3 m/s 755 mmHg 56%
    18:00 +7°C° 0 mm 2 m/s 755 mmHg 59%
    19:00 +7°C° 0 mm 2 m/s 755 mmHg 61%
    20:00 +5°C° 0 mm 3 m/s 755 mmHg 64%
    21:00 +5°C° 0 mm 3 m/s 755 mmHg 66%
    22:00 +4°C° 0 mm 3 m/s 755 mmHg 68%
    23:00 +4°C° 0 mm 4 m/s 754 mmHg 69%

    27 Septembre, Jeudi

    Heure Température Précipitation Vent Pression Humidité
    00:00 +4°C° 0 mm 4 m/s 754 mmHg 70%
    01:00 +4°C° 0 mm 4 m/s 754 mmHg 71%
    02:00 +3°C° 0 mm 5 m/s 753 mmHg 72%
    03:00 +3°C° 0 mm 5 m/s 753 mmHg 73%
    04:00 +3°C° 0 mm 6 m/s 752 mmHg 71%
    05:00 +4°C° 0 mm 6 m/s 751 mmHg 70%
    06:00 +4°C° 0 mm 7 m/s 751 mmHg 68%
    07:00 +4°C° 0.3 mm 8 m/s 750 mmHg 68%
    08:00 +4°C° 0.3 mm 8 m/s 749 mmHg 68%
    09:00 +5°C° 0.3 mm 9 m/s 749 mmHg 68%
    10:00 +5°C° 1 mm 9 m/s 748 mmHg 71%
    11:00 +5°C° 1 mm 10 m/s 748 mmHg 73%
    12:00 +5°C° 1 mm 10 m/s 747 mmHg 75%
    13:00 +5°C° 1 mm 10 m/s 747 mmHg 78%
    14:00 +5°C° 1 mm 10 m/s 746 mmHg 80%
    15:00 +5°C° 1 mm 9 m/s 746 mmHg 82%
    16:00 +6°C° 0.4 mm 9 m/s 746 mmHg 83%
    17:00 +6°C° 0.4 mm 8 m/s 746 mmHg 85%
    18:00 +6°C° 0.4 mm 7 m/s 746 mmHg 86%
    19:00 +6°C° 0 mm 7 m/s 746 mmHg 87%
    20:00 +8°C° 0 mm 6 m/s 746 mmHg 88%
    21:00 +8°C° 0 mm 6 m/s 747 mmHg 89%
    22:00 +8°C° 0 mm 5 m/s 747 mmHg 90%
    23:00 +8°C° 0 mm 5 m/s 747 mmHg 91%

    28 Septembre, Vendredi

    Heure Température Précipitation Vent Pression Humidité
    00:00 +8°C° 0 mm 5 m/s 747 mmHg 92%
    01:00 +8°C° 0 mm 5 m/s 747 mmHg 92%
    02:00 +8°C° 0 mm 5 m/s 747 mmHg 92%
    03:00 +8°C° 0 mm 4 m/s 747 mmHg 92%
    04:00 +8°C° 0 mm 5 m/s 747 mmHg 92%
    05:00 +9°C° 0 mm 5 m/s 747 mmHg 92%
    06:00 +9°C° 0 mm 6 m/s 746 mmHg 92%
    07:00 +10°C° 0.1 mm 6 m/s 746 mmHg 90%
    08:00 +10°C° 0.1 mm 7 m/s 746 mmHg 87%
    09:00 +11°C° 0.1 mm 7 m/s 746 mmHg 85%
    10:00 +12°C° 0 mm 8 m/s 746 mmHg 83%
    11:00 +12°C° 0 mm 8 m/s 745 mmHg 80%
    12:00 +13°C° 0 mm 8 m/s 745 mmHg 78%
    13:00 +13°C° 0 mm 9 m/s 745 mmHg 78%
    14:00 +13°C° 0 mm 9 m/s 744 mmHg 78%
    15:00 +13°C° 0 mm 9 m/s 744 mmHg 78%
    16:00 +13°C° 0 mm 9 m/s 744 mmHg 79%
    17:00 +13°C° 0 mm 9 m/s 743 mmHg 79%
    18:00 +13°C° 0 mm 9 m/s 743 mmHg 80%
    19:00 +13°C° 0.2 mm 8 m/s 743 mmHg 80%
    20:00 +13°C° 0.2 mm 8 m/s 744 mmHg 81%
    21:00 +13°C° 0.2 mm 8 m/s 744 mmHg 81%
    22:00 +11°C° 0.1 mm 7 m/s 745 mmHg 81%
    23:00 +9°C° 0.1 mm 7 m/s 746 mmHg 81%
    Voir plus